Weather History for Orange City, IA

Change the Weather History Date:

Saturday, January 12, 2013

  Actual Average Record
Temperature  
Mean Temperature 13 °F -  
Max Temperature 21 °F 26 °F 51 °F (2004)
Min Temperature 5 °F 10 °F -4 °F (2011)
Degree Days  
Heating Degree Days 52    
Moisture  
Dew Point 5 °F    
Average Humidity 71    
Maximum Humidity 86    
Minimum Humidity 58    
Precipitation  
Precipitation 0.00 in - - ()
Sea Level Pressure  
Sea Level Pressure 29.94 in    
Wind  
Wind Speed 23 mph (WNW)    
Max Wind Speed 36 mph    
Max Gust Speed 44 mph    
Visibility 10 miles    
Events Snow    
Averages and records for this station are not official NWS values.
T = Trace of Precipitation, MM = Missing Value Source: NWS Daily Summary

Daily Weather History Graph

Daily Weather History Graph

Search for Another Location

Airport:

Trip Planner

Search our weather history database for the weather conditions in past years. The results will help you decide how hot, cold, wet, or windy it might be!

Date:

Astronomy

Jan. 12, 2013 Rise Set
Actual Time 7:53 AM CST 5:11 PM CST
Civil Twilight 7:22 AM CST 5:43 PM CST
Nautical Twilight 6:47 AM CST 6:18 PM CST
Astronomical Twilight 6:12 AM CST 6:52 PM CST
Moon 8:10 AM CST (1/12) 6:45 PM CST (1/12)
Length of Visible Light 10h 21m
Length of Day
9h 18m
New Moon, 1% of the Moon is Illuminated
Jan 12
New Moon
Jan 18
First Quarter
Jan 26
Full
Feb 3
Last Quarter
Feb 10
New

Hourly Weather History & Observations

Time (CST) Temp. Windchill Dew Point Humidity Pressure Visibility Wind Dir Wind Speed Gust Speed Precip Events Conditions
12:15 AM 21.2 °F 3.5 °F 17.6 °F 86% 29.60 in 10.0 mi West 27.6 mph 34.5 mph N/A   Overcast
12:35 AM 21.2 °F 3.3 °F 17.6 °F 86% 29.62 in 10.0 mi West 28.8 mph - N/A   Overcast
12:55 AM 21.2 °F 4.5 °F 15.8 °F 80% 29.64 in 10.0 mi West 24.2 mph 34.5 mph N/A   Overcast
1:15 AM 19.4 °F 0.5 °F 12.2 °F 74% 29.66 in 10.0 mi West 29.9 mph 38.0 mph N/A   Overcast
1:35 AM 17.6 °F -1.6 °F 10.4 °F 73% 29.68 in 7.0 mi West 28.8 mph 41.4 mph N/A Snow Light Snow
1:55 AM 17.6 °F -3.3 °F 10.4 °F 73% 29.69 in 10.0 mi West 35.7 mph 43.7 mph N/A   Scattered Clouds
2:15 AM 17.6 °F -2.5 °F 10.4 °F 73% 29.71 in 10.0 mi WNW 32.2 mph 42.6 mph N/A   Scattered Clouds
2:35 AM 15.8 °F -3.7 °F 10.4 °F 79% 29.73 in 10.0 mi WNW 27.6 mph 33.4 mph N/A   Scattered Clouds
2:55 AM 15.8 °F -3.4 °F 8.6 °F 73% 29.75 in 10.0 mi West 26.5 mph 34.5 mph N/A   Mostly Cloudy
3:35 AM 15.8 °F -4.7 °F 8.6 °F 73% 29.77 in 10.0 mi West 31.1 mph - N/A Snow Light Snow
3:55 AM 15.8 °F -3.4 °F 8.6 °F 73% 29.78 in 10.0 mi WNW 26.5 mph - N/A   Overcast
4:15 AM 15.8 °F -3.7 °F 8.6 °F 73% 29.78 in 5.0 mi WNW 27.6 mph - N/A Snow Light Snow
4:35 AM 15.8 °F -2.7 °F 8.6 °F 73% 29.79 in 7.0 mi WNW 24.2 mph 34.5 mph N/A   Overcast
4:55 AM 15.8 °F -4.1 °F 6.8 °F 68% 29.79 in 10.0 mi WNW 28.8 mph 40.3 mph N/A   Mostly Cloudy
5:15 AM 14.0 °F -6.5 °F 6.8 °F 73% 29.80 in 10.0 mi WNW 28.8 mph 33.4 mph N/A   Clear
5:35 AM 14.0 °F -7.1 °F 6.8 °F 73% 29.81 in 10.0 mi WNW 31.1 mph 38.0 mph N/A   Clear
5:55 AM 14.0 °F -6.2 °F 6.8 °F 73% 29.84 in 10.0 mi WNW 27.6 mph 33.4 mph N/A   Clear
6:15 AM 12.2 °F -7.1 °F 6.8 °F 79% 29.84 in 10.0 mi WNW 23.0 mph 32.2 mph N/A   Scattered Clouds
6:35 AM 12.2 °F -5.8 °F 6.8 °F 79% 29.87 in 10.0 mi West 19.6 mph 27.6 mph N/A   Scattered Clouds
6:55 AM 12.2 °F -6.3 °F 3.2 °F 67% 29.89 in 10.0 mi WNW 20.7 mph 29.9 mph N/A   Clear
7:15 AM 12.2 °F -6.3 °F 5.0 °F 73% 29.89 in 10.0 mi WNW 20.7 mph 24.2 mph N/A   Clear
7:35 AM 12.2 °F -4.8 °F 6.8 °F 79% 29.90 in 10.0 mi West 17.3 mph - N/A   Clear
7:55 AM 12.2 °F -5.3 °F 5.0 °F 73% 29.92 in 10.0 mi WNW 18.4 mph 25.3 mph N/A   Mostly Cloudy
8:15 AM 12.2 °F -4.3 °F 5.0 °F 73% 29.93 in 10.0 mi West 16.1 mph - N/A   Scattered Clouds
8:35 AM 12.2 °F -4.8 °F 6.8 °F 79% 29.94 in 10.0 mi West 17.3 mph - N/A   Clear
8:55 AM 12.2 °F -6.3 °F 6.8 °F 79% 29.93 in 10.0 mi West 20.7 mph 24.2 mph N/A   Clear
9:15 AM 14.0 °F -5.1 °F 5.0 °F 67% 29.93 in 10.0 mi WNW 24.2 mph 32.2 mph N/A   Clear
9:35 AM 12.2 °F -6.7 °F 5.0 °F 73% 29.96 in 10.0 mi West 21.9 mph - N/A   Mostly Cloudy
9:55 AM 14.0 °F -3.0 °F 6.8 °F 73% 29.96 in 10.0 mi WNW 18.4 mph - N/A   Mostly Cloudy
10:15 AM 14.0 °F -3.0 °F 6.8 °F 73% 29.97 in 10.0 mi WNW 18.4 mph - N/A   Mostly Cloudy
10:35 AM 15.8 °F -1.1 °F 6.8 °F 68% 29.98 in 10.0 mi West 19.6 mph 26.5 mph N/A   Mostly Cloudy
10:55 AM 14.0 °F -3.0 °F 5.0 °F 67% 29.99 in 10.0 mi WNW 18.4 mph - N/A   Mostly Cloudy
11:15 AM 14.0 °F -3.9 °F 5.0 °F 67% 30.00 in 10.0 mi WNW 20.7 mph - N/A   Mostly Cloudy
11:35 AM 14.0 °F -4.3 °F 3.2 °F 62% 30.00 in 10.0 mi WNW 21.9 mph 27.6 mph N/A   Scattered Clouds
11:55 AM 15.8 °F -1.5 °F 5.0 °F 62% 30.00 in 10.0 mi NW 20.7 mph 26.5 mph N/A   Mostly Cloudy
12:15 PM 15.8 °F 0.3 °F 5.0 °F 62% 30.00 in 10.0 mi West 16.1 mph 21.9 mph N/A   Overcast
12:55 PM 15.8 °F -1.1 °F 5.0 °F 62% 30.00 in 10.0 mi WNW 19.6 mph - N/A   Overcast
1:15 PM 15.8 °F -0.6 °F 5.0 °F 62% 30.00 in 10.0 mi WNW 18.4 mph 24.2 mph N/A   Overcast
1:35 PM 15.8 °F -1.1 °F 5.0 °F 62% 29.99 in 10.0 mi WNW 19.6 mph - N/A   Mostly Cloudy
1:55 PM 15.8 °F -0.6 °F 3.2 °F 58% 30.00 in 10.0 mi WNW 18.4 mph - N/A   Overcast
2:15 PM 14.0 °F -2.5 °F 6.8 °F 73% 29.99 in 7.0 mi WNW 17.3 mph - N/A   Overcast
2:35 PM 15.8 °F -0.2 °F 5.0 °F 62% 30.00 in 10.0 mi WNW 17.3 mph 25.3 mph N/A   Overcast
2:55 PM 14.0 °F -4.3 °F 3.2 °F 62% 30.00 in 10.0 mi WNW 21.9 mph - N/A   Overcast
3:15 PM 15.8 °F -1.9 °F 5.0 °F 62% 30.02 in 10.0 mi WNW 21.9 mph 26.5 mph N/A   Mostly Cloudy
3:35 PM 12.2 °F -4.8 °F 1.4 °F 62% 30.01 in 10.0 mi WNW 17.3 mph - N/A   Mostly Cloudy
3:55 PM 12.2 °F -4.3 °F 5.0 °F 73% 30.02 in 7.0 mi WNW 16.1 mph - N/A   Overcast
4:15 PM 12.2 °F -5.8 °F 6.8 °F 79% 30.03 in 7.0 mi West 19.6 mph 24.2 mph N/A   Overcast
4:35 PM 12.2 °F -6.3 °F 3.2 °F 67% 30.02 in 7.0 mi WNW 20.7 mph - N/A Snow Light Snow
4:55 PM 10.4 °F -8.2 °F 1.4 °F 67% 30.03 in 10.0 mi NW 19.6 mph - N/A   Clear
5:15 PM 10.4 °F -8.6 °F 1.4 °F 67% 30.03 in 10.0 mi NW 20.7 mph 25.3 mph N/A   Clear
5:35 PM 10.4 °F -7.2 °F 1.4 °F 67% 30.03 in 10.0 mi NW 17.3 mph 21.9 mph N/A   Clear
5:55 PM 10.4 °F -6.0 °F 1.4 °F 67% 30.03 in 10.0 mi NW 15.0 mph 18.4 mph N/A   Clear
6:15 PM 10.4 °F -2.4 °F 1.4 °F 67% 30.05 in 10.0 mi NW 9.2 mph - N/A   Clear
6:35 PM 10.4 °F -2.4 °F 3.2 °F 73% 30.06 in 10.0 mi NW 9.2 mph - N/A   Scattered Clouds
6:55 PM 10.4 °F -4.1 °F 3.2 °F 73% 30.05 in 7.0 mi NW 11.5 mph - N/A Snow Light Snow
7:15 PM 10.4 °F -6.0 °F 1.4 °F 67% 30.06 in 10.0 mi NW 15.0 mph 19.6 mph N/A   Scattered Clouds
7:55 PM 8.6 °F -7.0 °F 3.2 °F 79% 30.07 in 10.0 mi WNW 12.7 mph - N/A   Scattered Clouds
8:15 PM 8.6 °F -7.0 °F 3.2 °F 79% 30.07 in 7.0 mi WNW 12.7 mph - N/A   Mostly Cloudy
8:35 PM 8.6 °F -7.7 °F 3.2 °F 79% 30.08 in 5.0 mi WNW 13.8 mph - N/A Snow Light Snow
8:55 PM 8.6 °F -8.3 °F 1.4 °F 73% 30.08 in 10.0 mi NW 15.0 mph 20.7 mph N/A   Mostly Cloudy
9:15 PM 6.8 °F -9.3 °F 1.4 °F 79% 30.07 in 10.0 mi NW 12.7 mph 18.4 mph N/A   Scattered Clouds
9:35 PM 6.8 °F -9.3 °F -0.4 °F 72% 30.10 in 10.0 mi NW 12.7 mph - N/A   Clear
9:55 PM 6.8 °F -6.9 °F -0.4 °F 72% 30.08 in 10.0 mi NW 9.2 mph - N/A   Clear
10:35 PM 6.8 °F -7.8 °F -0.4 °F 72% 30.08 in 10.0 mi NW 10.4 mph - N/A   Clear
10:55 PM 5.0 °F -10.8 °F -2.2 °F 72% 30.07 in 10.0 mi NNW 11.5 mph 19.6 mph N/A   Clear
11:15 PM 6.8 °F -7.8 °F -0.4 °F 72% 30.07 in 10.0 mi NNW 10.4 mph - N/A   Clear
11:35 PM 6.8 °F -6.9 °F -0.4 °F 72% 30.06 in 10.0 mi NNW 9.2 mph - N/A   Mostly Cloudy
11:55 PM 6.8 °F -6.9 °F -0.4 °F 72% 30.06 in 10.0 mi NNW 9.2 mph - N/A   Scattered Clouds